Time,TemperatureF,DewpointF,PressureIn,WindDirection,WindDirectionDegrees,WindSpeedMPH,WindSpeedGustMPH,Humidity,HourlyPrecipIn,Conditions,Clouds,dailyrainin,SoftwareType,DateUTC
2013-01-06 15:03:00,25.0,20.0,30.28,West,273,3.0,-999.0,80,-99.99,,,-99.99,,2013-01-06 21:03:00,
2013-01-06 15:12:00,25.0,20.0,30.28,West,273,3.0,-999.0,80,-99.99,,,-99.99,,2013-01-06 21:12:00,
2013-01-06 15:22:00,25.0,19.0,30.28,West,281,4.0,-999.0,78,-99.99,,,-99.99,,2013-01-06 21:22:00,
2013-01-06 15:42:00,26.0,19.0,30.29,West,273,2.0,-999.0,76,-99.99,,,-99.99,,2013-01-06 21:42:00,
2013-01-06 15:52:00,25.0,18.0,30.30,West,266,4.0,-999.0,73,-99.99,,,-99.99,,2013-01-06 21:52:00,
2013-01-06 16:02:00,25.0,18.0,30.30,West,279,4.0,-999.0,74,-99.99,,,-99.99,,2013-01-06 22:02:00,
2013-01-06 16:12:00,25.0,18.0,30.30,West,279,4.0,-999.0,74,-99.99,,,-99.99,,2013-01-06 22:12:00,
2013-01-06 16:22:00,25.0,18.0,30.31,West,281,3.0,-999.0,74,-99.99,,,-99.99,,2013-01-06 22:22:00,
2013-01-06 16:33:00,25.0,18.0,30.32,West,279,3.0,-999.0,74,-99.99,,,-99.99,,2013-01-06 22:33:00,
2013-01-06 16:43:00,25.0,18.0,30.32,West,279,3.0,-999.0,74,-99.99,,,-99.99,,2013-01-06 22:43:00,
2013-01-06 16:52:00,24.0,17.0,30.32,West,275,3.0,-999.0,75,-99.99,,,-99.99,,2013-01-06 22:52:00,
2013-01-06 17:02:00,24.0,18.0,30.32,West,275,1.0,-999.0,77,-99.99,,,-99.99,,2013-01-06 23:02:00,
2013-01-06 17:12:00,24.0,18.0,30.32,West,275,1.0,-999.0,77,-99.99,,,-99.99,,2013-01-06 23:12:00,
2013-01-06 17:22:00,23.0,17.0,30.32,West,275,0.0,-999.0,79,-99.99,,,-99.99,,2013-01-06 23:22:00,
2013-01-06 17:33:00,23.0,18.0,30.33,West,275,0.0,-999.0,81,-99.99,,,-99.99,,2013-01-06 23:33:00,
2013-01-06 17:43:00,23.0,18.0,30.33,West,275,0.0,-999.0,81,-99.99,,,-99.99,,2013-01-06 23:43:00,
2013-01-06 17:52:00,22.0,17.0,30.32,West,275,0.0,-999.0,81,-99.99,,,-99.99,,2013-01-06 23:52:00,
2013-01-06 18:02:00,21.0,16.0,30.32,West,275,0.0,-999.0,82,-99.99,,,-99.99,,2013-01-07 00:02:00,
2013-01-06 18:12:00,21.0,16.0,30.32,West,275,0.0,-999.0,82,-99.99,,,-99.99,,2013-01-07 00:12:00,
2013-01-06 18:23:00,21.0,16.0,30.33,West,275,0.0,-999.0,82,-99.99,,,-99.99,,2013-01-07 00:23:00,
2013-01-06 18:33:00,21.0,16.0,30.34,West,275,1.0,-999.0,82,-99.99,,,-99.99,,2013-01-07 00:33:00,
2013-01-06 18:42:00,21.0,16.0,30.34,West,275,1.0,-999.0,82,-99.99,,,-99.99,,2013-01-07 00:42:00,
2013-01-06 18:52:00,21.0,16.0,30.34,West,275,0.0,-999.0,81,-99.99,,,-99.99,,2013-01-07 00:52:00,
2013-01-06 19:02:00,21.0,16.0,30.34,West,275,0.0,-999.0,81,-99.99,,,-99.99,,2013-01-07 01:02:00,
2013-01-06 19:12:00,21.0,16.0,30.34,West,275,0.0,-999.0,81,-99.99,,,-99.99,,2013-01-07 01:12:00,
2013-01-06 19:23:00,20.0,15.0,30.35,West,275,0.0,-999.0,82,-99.99,,,-99.99,,2013-01-07 01:23:00,
2013-01-06 19:32:00,20.0,16.0,30.35,West,275,0.0,-999.0,84,-99.99,,,-99.99,,2013-01-07 01:32:00,
2013-01-06 19:42:00,20.0,16.0,30.35,West,275,0.0,-999.0,84,-99.99,,,-99.99,,2013-01-07 01:42:00,
2013-01-06 19:52:00,19.0,15.0,30.35,West,275,0.0,-999.0,84,-99.99,,,-99.99,,2013-01-07 01:52:00,
2013-01-06 20:02:00,19.0,15.0,30.35,West,275,0.0,-999.0,85,-99.99,,,-99.99,,2013-01-07 02:02:00,
2013-01-06 20:12:00,19.0,15.0,30.35,West,275,0.0,-999.0,85,-99.99,,,-99.99,,2013-01-07 02:12:00,
2013-01-06 20:22:00,19.0,15.0,30.35,West,275,0.0,-999.0,85,-99.99,,,-99.99,,2013-01-07 02:22:00,
2013-01-06 20:32:00,19.0,15.0,30.35,West,275,0.0,-999.0,85,-99.99,,,-99.99,,2013-01-07 02:32:00,
2013-01-06 20:42:00,19.0,15.0,30.35,West,275,0.0,-999.0,85,-99.99,,,-99.99,,2013-01-07 02:42:00,
2013-01-06 20:52:00,19.0,16.0,30.35,West,275,0.0,-999.0,86,-99.99,,,-99.99,,2013-01-07 02:52:00,
2013-01-06 21:02:00,19.0,15.0,30.35,West,275,0.0,-999.0,85,-99.99,,,-99.99,,2013-01-07 03:02:00,
2013-01-06 21:12:00,19.0,15.0,30.35,West,275,0.0,-999.0,85,-99.99,,,-99.99,,2013-01-07 03:12:00,
2013-01-06 21:22:00,19.0,16.0,30.35,West,275,0.0,-999.0,86,-99.99,,,-99.99,,2013-01-07 03:22:00,
2013-01-06 21:33:00,19.0,16.0,30.35,West,275,0.0,-999.0,86,-99.99,,,-99.99,,2013-01-07 03:33:00,
2013-01-06 21:43:00,19.0,16.0,30.35,West,275,0.0,-999.0,86,-99.99,,,-99.99,,2013-01-07 03:43:00,
2013-01-06 21:52:00,19.0,16.0,30.35,West,275,0.0,-999.0,86,-99.99,,,-99.99,,2013-01-07 03:52:00,
2013-01-06 22:02:00,18.0,14.0,30.35,West,275,0.0,-999.0,85,-99.99,,,-99.99,,2013-01-07 04:02:00,
2013-01-06 22:12:00,18.0,14.0,30.35,West,275,0.0,-999.0,85,-99.99,,,-99.99,,2013-01-07 04:12:00,
2013-01-06 22:22:00,18.0,14.0,30.35,West,275,0.0,-999.0,85,-99.99,,,-99.99,,2013-01-07 04:22:00,
2013-01-06 22:32:00,18.0,15.0,30.35,West,275,0.0,-999.0,86,-99.99,,,-99.99,,2013-01-07 04:32:00,
2013-01-06 22:42:00,18.0,15.0,30.35,West,275,0.0,-999.0,86,-99.99,,,-99.99,,2013-01-07 04:42:00,
2013-01-06 22:52:00,18.0,15.0,30.35,West,275,0.0,-999.0,86,-99.99,,,-99.99,,2013-01-07 04:52:00,
2013-01-06 23:03:00,18.0,15.0,30.34,West,275,0.0,-999.0,87,-99.99,,,-99.99,,2013-01-07 05:03:00,
2013-01-06 23:12:00,18.0,15.0,30.34,West,275,0.0,-999.0,87,-99.99,,,-99.99,,2013-01-07 05:12:00,
2013-01-06 23:22:00,18.0,15.0,30.34,West,275,0.0,-999.0,88,-99.99,,,-99.99,,2013-01-07 05:22:00,
2013-01-06 23:33:00,18.0,15.0,30.34,West,275,0.0,-999.0,88,-99.99,,,-99.99,,2013-01-07 05:33:00,
2013-01-06 23:42:00,18.0,15.0,30.34,West,275,0.0,-999.0,88,-99.99,,,-99.99,,2013-01-07 05:42:00,
2013-01-06 23:52:00,18.0,15.0,30.34,West,275,0.0,-999.0,88,-99.99,,,-99.99,,2013-01-07 05:52:00,